Theta_e
350 349 348 345 342 339 335 333 329 326 325 327 327 325 325 328 334 338 340 340 340 341 340 340 340 340 341 341 340 336 332 331 335 340 338 338 339 338 337 337 337 337 337 337 337 337 337 338 338 338 338 338 338 337 337 337 336 336 336 337 337 337 338 338 339 338 338 338 339 339 337 337 337 337 335 332 329 327 326 324 320 317 321 324 321
349 349 348 344 342 338 335 333 330 325 323 324 326 325 324 323 326 331 335 338 340 341 340 340 340 340 338 335 332 328 330 335 340 341 338 339 339 337 336 336 336 335 335 335 335 335 334 334 335 335 335 337 337 337 337 337 336 336 337 337 337 337 338 338 338 338 338 338 338 338 337 337 337 336 332 329 327 325 322 320 317 314 320 323 323
347 350 347 344 342 338 334 333 330 325 321 321 324 324 325 323 322 324 326 330 333 336 337 337 336 333 330 329 331 334 337 340 341 341 340 339 337 336 335 335 336 336 336 336 335 334 332 332 333 332 332 334 335 333 334 336 336 336 337 337 337 337 337 338 338 338 338 338 338 337 337 337 335 333 330 328 326 324 322 318 313 314 322 325 326
348 351 346 345 343 337 334 333 330 326 320 319 322 322 324 325 324 324 322 322 324 325 327 328 327 326 329 333 337 339 339 341 340 341 340 337 335 335 335 335 336 338 337 336 335 333 331 333 333 331 331 333 332 332 332 333 334 335 336 337 337 337 337 337 337 338 338 338 337 337 336 335 334 332 330 329 327 324 322 318 317 322 326 327 327
349 351 346 346 344 338 333 332 330 326 319 317 320 321 323 326 326 327 324 321 320 320 320 322 326 330 335 337 338 339 339 341 340 341 339 338 337 336 337 337 338 338 336 335 334 332 333 334 333 331 331 331 330 330 330 330 331 332 334 335 335 334 336 337 337 337 337 337 336 336 335 334 333 332 330 329 328 327 324 321 324 327 328 327 327
350 350 346 346 345 340 334 332 329 326 318 315 320 320 324 327 325 326 324 322 321 322 326 329 334 337 338 338 338 338 340 341 341 341 340 340 339 337 338 338 338 337 334 334 334 334 333 333 332 332 333 333 332 330 328 327 328 330 331 331 329 329 331 334 336 337 336 336 336 335 334 334 333 332 331 330 328 327 326 324 326 328 327 327 327
350 349 348 346 345 339 334 332 328 325 317 314 319 320 324 326 324 323 322 321 321 325 331 334 336 338 338 339 339 338 340 341 341 341 339 338 338 336 337 338 338 336 335 335 335 335 334 333 334 334 335 336 335 333 331 328 327 328 328 328 327 327 328 329 332 334 335 334 334 334 334 333 331 331 331 330 328 327 327 326 327 328 327 326 326
350 348 347 345 344 339 334 331 327 324 317 314 318 320 322 323 322 321 321 320 320 322 327 329 333 336 338 339 339 339 339 338 337 337 336 333 332 333 334 336 338 336 336 335 335 336 335 335 336 336 336 336 336 335 334 331 330 330 329 329 329 330 330 328 328 329 330 332 333 333 333 332 331 330 331 330 329 328 328 328 327 328 327 327 326
349 348 346 345 345 342 336 331 325 323 319 313 316 320 319 320 320 320 321 321 320 320 320 321 327 332 335 338 338 338 335 333 334 336 336 333 331 331 330 330 333 336 337 335 335 337 335 336 337 336 337 336 336 336 335 334 335 335 334 333 332 333 333 331 329 326 325 328 331 331 331 330 328 327 329 329 328 327 328 327 327 328 328 326 325
349 348 347 346 346 344 337 330 326 324 320 313 314 318 319 319 318 320 321 321 321 320 318 318 322 327 330 333 334 334 333 333 335 337 338 337 337 336 335 330 326 329 334 335 335 337 336 336 336 336 336 336 336 336 336 335 335 335 335 335 334 335 335 334 331 328 325 324 328 329 327 325 324 326 329 329 328 327 327 327 327 327 326 325 326
348 349 349 347 346 345 337 331 328 325 320 314 314 316 319 319 318 319 319 321 322 321 319 317 321 325 328 330 330 331 333 335 336 337 338 338 339 339 340 338 331 323 324 329 331 334 336 335 335 335 335 335 334 333 332 331 331 332 333 334 335 335 335 336 334 332 329 324 326 327 325 326 327 329 329 329 328 327 326 327 327 327 326 326 327
348 350 349 348 346 345 339 332 329 325 321 315 314 315 318 319 318 318 318 320 322 322 320 318 322 326 328 330 330 332 335 335 335 336 337 339 339 340 340 340 338 330 322 321 322 328 332 334 335 334 332 330 329 328 328 329 331 332 333 334 334 334 332 335 336 335 332 326 325 327 328 329 328 329 329 329 328 326 327 327 327 327 326 326 327
349 350 350 349 346 346 341 334 329 326 322 317 314 314 317 318 318 318 318 320 321 324 322 321 323 325 329 332 334 336 337 336 335 336 337 339 339 340 340 339 340 338 332 325 322 324 327 331 331 329 326 325 324 326 329 331 334 334 334 333 331 331 331 333 335 336 333 326 323 325 328 328 327 328 329 328 327 328 328 327 327 327 326 325 326
350 350 350 349 346 346 343 337 330 328 324 320 315 313 316 317 318 318 318 319 321 324 324 324 324 327 331 334 337 338 338 337 336 337 338 339 339 339 339 339 340 339 338 334 329 326 327 329 326 323 322 325 327 329 331 334 335 334 333 330 327 327 329 331 332 333 330 323 320 323 327 328 328 329 329 328 328 328 328 328 327 327 326 325 325
349 348 348 350 347 346 345 340 333 329 326 322 319 314 315 317 317 318 318 319 320 322 325 326 326 328 331 334 337 338 339 338 338 338 338 339 339 339 339 339 339 339 340 338 335 329 327 328 325 324 326 328 329 330 332 334 335 333 330 326 325 325 325 327 327 326 323 317 315 321 328 329 329 329 329 329 328 328 328 328 327 326 326 324 324
347 344 346 350 349 347 346 343 337 332 328 325 322 318 315 316 318 318 318 318 319 321 324 326 327 328 330 333 337 338 338 338 339 338 339 339 339 339 339 339 339 339 340 340 339 333 330 328 327 328 330 330 330 331 332 335 334 332 329 324 324 324 324 325 324 321 318 314 312 320 327 329 329 328 329 329 328 328 328 327 327 326 326 323 324
346 342 346 348 348 347 347 345 340 334 330 327 324 321 317 316 318 319 319 319 319 320 323 326 328 329 329 331 335 337 337 337 339 339 339 339 340 339 339 339 339 339 339 339 339 337 334 331 329 329 331 331 331 331 331 333 334 333 330 325 323 323 324 325 324 320 317 314 311 317 323 325 327 328 329 329 328 328 327 327 326 326 325 324 323
345 342 345 346 346 347 347 346 343 338 332 330 327 324 320 317 318 319 319 319 319 320 321 324 328 329 329 330 333 335 336 338 338 339 340 340 340 340 339 340 339 339 339 338 337 337 336 334 333 331 332 331 331 331 331 332 333 334 333 331 327 325 325 325 324 321 320 317 311 312 316 321 326 327 328 329 328 327 327 326 326 325 325 324 323
343 342 343 344 344 345 346 346 346 342 336 333 331 328 325 322 319 318 319 319 320 320 320 322 324 328 330 330 331 332 335 338 339 339 340 340 340 340 339 340 339 339 339 338 337 335 335 335 335 333 334 333 332 332 332 332 332 334 334 335 333 330 328 327 325 323 324 321 313 310 310 316 324 325 328 329 328 328 327 326 326 325 325 325 324
343 343 343 342 342 343 345 347 347 345 341 337 335 332 328 326 323 319 318 318 319 320 320 321 323 327 330 332 333 332 333 336 337 338 340 340 340 340 339 339 339 339 339 338 337 335 334 334 334 334 334 335 334 333 333 332 331 332 334 335 335 333 330 328 325 325 327 323 315 310 306 315 323 325 328 329 327 327 327 326 325 325 325 325 324
345 345 344 342 342 342 344 347 348 346 345 342 338 335 331 329 327 323 320 319 318 319 320 321 324 329 332 334 334 331 328 329 332 335 338 339 339 340 339 339 338 338 338 338 337 335 334 334 333 334 333 335 335 334 333 332 331 331 332 334 334 334 331 329 327 326 328 325 319 312 309 316 321 322 327 328 327 327 326 326 325 325 325 324 324
346 346 345 344 342 342 344 347 348 347 346 345 341 339 336 333 329 327 325 322 321 320 322 321 323 328 331 334 333 330 325 324 326 330 333 336 337 337 338 338 337 337 337 335 334 333 332 333 333 333 333 333 334 334 334 333 332 331 332 334 334 335 333 332 330 329 330 328 322 316 314 318 317 320 327 328 327 327 326 326 325 325 325 324 324
342 342 342 344 343 342 345 347 348 348 346 346 345 341 339 337 332 329 328 326 325 323 323 322 322 324 326 328 329 329 327 326 325 325 329 333 335 335 335 334 332 332 332 330 329 328 327 329 331 332 333 333 333 333 334 334 333 332 331 333 334 335 335 334 333 332 332 330 326 320 319 321 316 319 326 327 327 327 327 326 325 325 325 324 324
341 340 340 341 344 345 345 346 348 348 347 346 346 344 341 340 336 332 331 330 328 326 324 324 323 323 322 323 324 327 329 330 329 329 330 330 330 333 334 333 330 326 325 324 325 325 324 325 327 329 331 333 333 332 333 334 334 333 332 332 334 335 335 335 335 334 334 333 329 323 322 324 319 319 324 325 327 327 327 326 324 325 325 324 324
340 342 341 340 344 346 344 342 345 348 346 346 345 345 343 342 339 335 333 332 330 328 327 326 324 324 324 323 323 324 327 331 333 333 334 330 326 331 333 332 332 326 323 323 324 325 324 323 324 326 328 331 333 333 333 333 333 334 333 332 333 334 335 336 336 335 335 334 332 326 324 325 322 321 323 324 326 327 326 326 325 324 324 324 323
339 341 340 341 343 343 341 339 343 347 346 346 345 345 345 343 341 338 336 334 332 330 329 329 326 325 325 324 324 325 327 330 334 334 335 334 329 329 331 330 331 326 323 324 323 323 322 320 321 323 325 328 331 332 332 332 333 333 333 333 333 333 334 335 336 336 335 335 333 329 326 327 324 322 324 324 326 327 326 325 325 325 324 323 323
338 339 336 340 342 341 342 341 343 345 345 345 345 345 344 344 343 341 339 336 334 332 331 331 329 328 326 325 325 325 326 328 332 333 333 333 331 328 327 328 330 326 322 322 321 320 319 318 318 319 322 325 327 330 331 332 332 332 333 333 333 332 333 334 335 335 335 335 334 331 328 328 326 323 324 324 324 327 327 326 326 324 324 324 322
336 337 337 339 339 339 342 342 343 345 345 345 344 344 343 344 344 343 341 340 338 335 334 333 332 330 328 327 325 325 326 326 328 330 329 329 329 328 326 326 328 327 322 320 320 319 319 319 318 318 319 321 323 325 328 330 331 332 332 332 333 333 333 333 334 334 335 336 335 333 330 329 328 325 322 322 323 326 328 327 326 324 324 324 322
333 334 335 335 335 336 339 341 343 344 344 344 343 343 342 342 343 343 342 341 340 339 337 336 335 333 331 329 328 327 326 326 327 327 327 326 327 327 327 325 324 325 324 322 321 320 319 319 318 317 317 318 319 320 323 326 329 330 332 332 332 333 333 333 333 333 335 336 336 335 333 330 330 328 323 319 320 326 328 327 326 325 325 324 322
331 333 334 333 333 334 337 339 341 343 344 343 343 342 341 341 342 342 342 342 342 341 340 338 337 336 335 334 332 331 329 329 329 328 328 327 326 327 327 324 323 323 324 323 322 322 320 319 318 316 316 317 317 317 318 321 324 327 331 333 332 332 333 333 333 333 334 336 337 336 334 332 331 330 325 318 318 324 328 327 326 326 326 325 323
331 332 332 332 333 334 335 336 336 338 340 340 341 341 341 342 342 341 341 341 341 341 341 340 339 338 338 338 336 335 333 332 332 332 331 330 329 329 328 326 325 323 321 321 321 322 322 321 319 317 316 316 317 317 316 316 319 322 327 331 334 334 333 333 333 333 333 334 336 337 336 334 332 332 328 320 315 320 326 327 327 327 326 326 324
331 331 331 332 332 333 334 334 334 336 336 336 338 340 340 341 341 341 341 341 341 341 341 340 339 339 339 338 338 337 336 335 334 335 334 333 333 333 332 330 327 324 322 319 318 320 323 323 321 320 318 317 318 318 317 316 316 317 320 326 332 335 336 335 334 334 334 334 336 336 337 336 334 333 332 324 316 316 321 325 327 327 327 327 326
332 333 334 332 330 332 333 333 335 338 337 337 339 340 340 340 341 341 342 341 341 342 341 341 340 339 339 339 338 338 337 337 336 336 336 336 336 336 335 334 330 326 324 322 319 318 321 324 324 323 321 319 319 319 319 317 316 315 316 318 323 330 335 335 336 335 335 336 336 336 336 337 336 334 334 329 321 315 316 320 324 327 327 327 327
333 333 334 333 332 334 335 334 337 339 340 339 340 340 340 340 339 340 340 339 339 338 338 339 339 339 339 339 338 338 338 337 337 337 337 337 337 337 336 336 333 329 326 324 323 320 322 324 325 324 323 321 319 319 320 319 317 316 315 314 316 322 328 332 335 335 335 335 335 336 336 336 336 335 335 333 327 321 316 316 320 323 325 326 327
332 334 334 335 336 337 337 337 338 339 339 339 340 340 340 340 339 339 338 337 337 335 335 336 337 337 338 339 338 339 339 338 338 337 337 337 337 337 337 336 335 332 329 326 324 324 325 326 327 328 327 324 321 319 320 320 318 317 316 314 314 316 321 326 329 330 331 332 331 332 334 335 336 336 335 335 333 328 323 319 319 321 321 323 326
330 333 334 335 336 336 337 337 337 338 338 338 339 339 340 340 340 340 339 338 337 336 336 337 338 337 337 338 338 339 339 338 338 338 338 338 337 337 337 336 335 334 332 330 328 328 328 328 329 331 331 328 325 322 321 321 320 318 317 315 314 314 316 319 323 325 328 330 329 329 331 333 335 336 335 335 335 333 330 325 322 322 321 320 322
327 329 329 330 333 334 334 335 336 337 337 337 338 338 338 339 339 339 339 339 337 337 337 338 338 338 337 336 336 338 339 339 338 338 338 338 338 337 336 336 334 334 333 332 332 331 331 332 332 333 334 332 331 330 328 327 324 320 318 316 315 315 315 318 322 327 330 330 331 330 330 331 333 335 335 335 335 335 333 331 328 326 323 321 319
322 323 324 325 327 327 327 328 330 331 332 334 334 335 336 337 337 338 338 338 337 337 336 337 337 337 336 335 335 336 337 338 337 337 336 337 338 337 336 335 334 333 332 332 332 332 333 334 334 334 335 335 334 334 333 332 329 325 320 317 316 318 321 323 325 328 330 330 330 330 330 330 332 334 335 335 335 335 335 334 331 329 328 326 322
319 320 320 320 320 320 321 321 321 323 324 326 327 330 332 333 334 335 335 335 335 336 335 335 335 335 335 335 335 336 336 336 336 336 335 336 337 337 336 335 334 332 331 332 333 333 334 336 336 335 336 335 335 335 334 334 332 328 323 318 317 320 325 328 329 329 329 329 329 329 330 330 331 333 334 335 335 335 335 335 334 332 332 331 328
317 317 317 318 317 316 317 317 316 317 318 319 320 322 325 328 330 331 332 332 333 334 335 335 335 335 335 335 335 336 336 336 336 336 335 335 336 335 335 334 333 333 332 332 333 333 334 335 336 336 336 336 335 335 335 335 333 331 327 324 322 323 326 329 330 330 330 330 329 329 330 330 331 333 334 334 335 335 335 335 335 334 333 333 332
315 315 314 314 314 314 314 313 313 315 316 316 317 318 319 322 326 329 330 330 332 332 333 334 335 334 335 335 335 335 335 336 336 336 335 335 334 334 334 333 333 333 333 333 333 332 333 334 335 336 336 336 336 335 335 334 331 330 330 329 328 327 328 329 329 329 330 331 330 330 329 329 331 333 334 334 334 335 335 335 335 335 334 334 333
312 312 313 312 313 313 313 312 312 313 313 313 314 315 316 319 322 326 328 329 330 331 332 332 332 333 334 334 335 335 335 335 336 336 336 336 335 335 334 334 334 334 334 334 333 333 333 334 335 335 336 335 335 336 335 333 330 329 330 330 330 330 329 329 329 330 331 331 331 330 329 329 330 332 333 333 333 334 335 335 335 335 335 334 334
311 311 311 311 312 311 311 311 312 312 311 311 312 312 313 314 317 320 325 327 329 330 331 330 330 331 332 334 334 334 335 335 336 336 336 336 336 336 336 335 335 335 335 334 334 334 333 335 335 335 335 334 334 335 334 333 331 330 329 330 332 333 332 330 329 330 331 330 330 330 329 329 329 330 331 332 332 334 335 335 335 335 335 334 334
310 309 309 309 309 309 310 310 310 310 310 310 310 310 311 312 314 316 319 323 326 327 327 327 328 329 330 332 333 334 334 335 336 336 336 337 337 336 336 336 336 336 336 335 335 335 334 335 335 335 335 334 333 333 334 333 332 332 330 330 330 331 334 332 328 329 330 330 330 329 329 329 329 329 330 330 331 332 333 334 335 335 335 335 335
308 307 307 307 307 307 307 307 308 308 308 308 308 309 310 312 313 314 315 317 318 320 322 323 324 325 327 328 330 331 333 333 334 335 336 336 336 336 336 336 336 337 336 336 336 336 336 336 336 336 335 334 334 333 334 333 332 333 332 332 331 331 335 331 328 331 330 328 330 329 329 329 329 329 329 330 331 332 333 334 334 335 335 335 335
307 307 307 306 306 306 306 306 306 306 306 306 306 307 308 309 309 310 312 313 313 314 316 317 316 318 322 325 328 330 331 332 333 334 335 335 336 336 336 336 336 336 337 337 337 336 336 336 336 336 336 335 335 334 334 333 333 333 332 333 333 334 334 330 330 335 333 329 329 329 329 329 329 329 330 331 331 332 333 333 334 334 334 335 335
307 307 306 305 305 305 305 305 305 305 305 305 306 306 307 307 307 307 308 310 311 311 311 311 312 313 316 320 324 328 330 332 333 333 334 334 335 335 336 336 336 336 336 336 337 337 337 336 336 336 336 335 334 333 334 334 332 332 332 332 332 332 333 331 332 336 335 333 330 329 330 329 329 330 330 331 332 332 333 333 333 333 334 334 335
307 306 305 305 305 305 305 305 305 305 305 305 305 306 307 307 307 307 307 307 308 308 308 309 310 311 312 314 318 323 327 329 332 332 333 334 334 334 335 336 336 336 336 336 336 337 336 337 337 336 337 336 334 334 334 334 332 333 332 332 331 331 331 331 331 332 333 334 332 330 330 329 330 330 330 330 331 331 332 332 332 333 334 334 334
306 305 305 305 305 305 305 305 305 305 305 305 305 305 306 307 307 307 307 307 307 307 307 307 309 310 311 313 314 317 322 326 328 330 331 333 333 334 334 335 335 336 336 336 336 336 336 336 337 336 336 336 335 335 335 334 334 334 333 332 331 331 330 330 329 329 330 331 332 331 330 329 329 329 329 329 329 330 331 331 332 332 333 333 333
306 305 306 306 306 306 306 305 306 305 305 305 305 305 305 306 307 307 307 307 307 306 306 307 308 308 310 312 312 313 317 321 325 328 329 331 332 333 334 334 335 335 336 336 336 336 337 336 337 336 336 336 336 336 335 335 334 334 333 333 331 330 330 330 329 328 328 329 330 331 330 329 329 329 329 329 329 329 330 330 331 331 331 332 332
306 306 306 306 306 306 306 306 306 306 305 305 305 305 305 306 307 307 306 306 306 306 306 306 307 308 308 310 311 312 314 316 320 324 328 330 332 333 334 334 334 334 335 336 336 337 337 337 337 336 336 336 336 336 335 335 334 334 333 333 333 332 332 331 330 329 329 329 330 330 330 329 329 330 330 330 330 330 330 330 330 330 330 331 332
Wind_Speed
24 26 25 26 26 29 28 26 24 23 24 24 25 27 28 29 29 30 31 32 31 31 31 30 28 27 24 22 21 21 21 22 22 21 20 19 18 18 18 16 15 14 14 14 14 14 14 13 12 11 11 11 11 13 14 14 14 14 14 11 9 11 11 12 12 12 13 13 13 14 15 15 15 15 15 14 14 12 11 10 8 9 10 11 10
30 28 27 27 27 28 29 27 25 24 24 24 25 25 26 28 28 29 29 30 30 30 29 28 27 25 24 23 23 22 22 23 22 21 20 19 18 18 17 16 15 14 14 14 14 14 13 13 12 11 12 13 13 14 14 14 13 14 13 10 9 10 11 12 13 13 13 13 13 13 14 14 15 14 14 13 12 11 9 8 7 9 12 12 13
33 30 29 28 28 29 29 28 27 26 25 24 25 24 24 25 27 28 28 28 28 28 28 27 26 25 24 24 24 23 23 23 22 22 20 19 18 17 17 16 15 14 14 14 14 14 13 14 13 13 14 15 15 15 15 14 13 13 13 11 9 9 9 11 12 13 12 12 12 13 13 14 14 13 13 12 11 9 8 7 8 11 13 14 15
32 31 30 29 29 30 30 29 28 27 26 26 26 25 24 24 25 25 27 28 28 28 27 27 26 25 24 23 24 23 24 24 23 21 20 19 18 17 17 16 15 14 14 14 14 14 15 16 16 17 17 17 16 15 14 13 12 13 13 12 10 9 9 10 10 11 12 12 11 12 13 13 12 11 11 11 9 8 7 8 11 13 14 14 15
31 30 30 29 29 30 31 30 29 28 27 27 27 26 26 24 24 23 25 26 27 28 27 27 26 24 23 23 23 23 23 24 23 21 19 18 18 17 17 16 15 14 14 14 14 16 17 18 19 19 19 18 18 16 14 12 11 12 13 12 9 9 9 9 9 9 10 11 11 12 12 12 12 10 10 10 9 8 8 10 13 14 14 14 14
31 31 30 29 28 29 30 31 29 28 28 28 28 26 25 25 25 24 24 25 26 27 26 26 25 24 24 23 22 22 23 24 22 21 19 17 17 17 16 15 13 13 14 15 16 17 18 19 19 19 18 18 18 18 17 14 12 11 11 10 10 9 8 7 7 8 8 10 11 11 11 11 11 10 9 9 8 9 10 12 14 14 13 14 14
31 31 30 29 29 29 29 30 30 29 28 28 29 27 25 25 25 25 25 25 26 26 25 26 25 25 24 24 22 21 23 23 22 20 18 17 17 16 15 14 12 13 15 15 16 17 19 20 19 17 16 15 15 16 17 16 14 12 11 10 10 9 7 6 4 5 7 8 9 10 10 10 10 11 10 10 9 10 12 13 14 13 12 13 14
32 33 31 31 31 31 30 30 29 29 29 28 29 28 27 26 26 26 25 26 26 26 26 27 26 25 25 24 23 22 22 22 22 20 18 17 17 17 16 15 13 14 15 15 16 16 18 19 17 16 15 14 14 14 15 15 15 13 11 10 9 9 7 5 3 2 4 6 7 8 8 9 10 11 10 11 11 11 13 12 13 13 12 12 13
33 34 32 33 32 31 31 31 29 30 31 30 30 29 28 27 27 26 26 25 25 26 26 27 26 25 25 24 23 23 23 22 22 20 18 18 18 17 17 16 15 15 15 15 16 16 17 17 16 16 15 14 13 13 12 12 11 11 10 8 7 6 5 4 2 1 2 5 6 6 7 7 8 10 10 11 11 11 13 12 12 12 11 11 12
34 34 32 33 32 31 32 32 31 32 33 33 32 31 29 28 28 27 26 25 25 25 25 26 25 25 25 25 24 23 23 22 21 19 19 18 17 16 16 16 15 16 15 15 15 15 15 15 15 15 14 14 13 12 11 9 7 7 7 7 6 4 2 2 2 1 1 4 6 6 5 5 6 9 10 10 10 11 12 11 11 12 11 11 12
33 32 30 31 31 31 31 32 32 33 34 33 33 32 30 29 28 27 26 25 25 25 25 26 26 26 26 25 24 24 23 21 20 19 18 17 17 16 15 15 15 15 15 15 15 15 15 14 14 14 14 13 13 11 9 8 5 4 4 5 5 5 3 2 2 2 3 4 5 5 6 7 9 9 9 10 10 11 12 11 11 11 11 12 12
30 29 28 29 29 29 29 31 31 32 33 33 32 32 31 30 28 27 26 25 25 25 25 26 26 25 24 24 24 24 22 21 20 19 18 17 16 16 15 15 14 15 14 13 14 14 14 13 13 12 12 12 11 10 8 6 3 2 2 3 4 5 4 4 6 5 5 5 6 6 7 9 10 9 8 9 9 10 11 11 11 11 10 11 11
26 26 25 27 28 27 28 30 31 32 32 32 32 32 31 30 29 27 26 25 25 25 25 25 25 23 22 24 25 23 22 21 20 19 17 16 15 14 14 14 14 14 14 13 12 12 12 12 12 11 11 10 10 9 7 5 2 0 1 2 2 3 5 7 7 7 6 7 7 7 7 7 7 7 7 8 8 10 10 11 11 11 10 11 11
21 21 22 25 28 27 26 28 30 31 31 31 31 31 31 30 29 27 26 25 24 24 24 24 23 22 23 25 24 22 21 21 20 18 17 16 15 14 14 13 13 14 14 12 11 10 11 11 10 11 10 9 9 9 7 4 2 1 1 2 4 4 5 5 5 5 6 7 7 7 7 6 5 6 7 7 8 9 10 11 11 11 10 10 11
22 20 18 19 25 26 25 27 28 29 29 29 29 29 29 29 29 27 26 25 24 23 23 23 22 22 23 24 23 22 21 20 19 17 17 16 15 14 14 13 12 12 12 12 11 10 10 10 10 10 10 9 9 9 7 4 3 3 3 4 5 5 4 3 3 2 3 5 7 8 8 7 6 6 7 7 7 8 9 10 10 10 10 10 11
25 24 20 18 22 24 24 25 26 27 27 27 27 27 27 28 28 27 26 25 23 23 22 22 21 21 22 23 22 21 20 19 18 17 16 15 14 14 13 12 12 12 11 11 10 10 10 9 9 10 9 9 9 8 7 5 4 4 4 5 5 5 4 2 1 1 1 3 6 9 10 8 6 6 7 6 6 7 7 8 9 10 10 10 11
26 26 25 22 21 21 22 23 24 26 26 25 25 25 26 27 28 27 26 24 23 22 21 21 20 20 20 21 21 20 19 18 17 16 15 15 14 13 13 12 12 11 11 10 10 10 9 9 9 9 9 8 7 7 6 5 5 5 5 4 5 4 3 2 1 1 1 1 4 8 9 8 5 6 7 6 6 6 6 7 8 9 9 10 10
27 26 26 24 21 20 21 22 22 25 26 24 24 24 24 25 26 27 26 24 23 22 21 20 20 19 19 19 19 19 19 17 16 15 14 14 13 13 12 12 12 10 9 10 10 10 9 9 9 9 8 7 7 6 6 5 4 5 5 4 3 3 3 2 0 1 2 1 2 5 8 8 6 7 7 6 6 6 6 6 8 8 9 9 9
27 27 27 25 24 21 19 21 21 23 26 25 23 22 22 23 24 25 25 24 23 22 21 20 20 19 18 18 17 18 17 16 15 14 14 13 12 12 12 12 11 10 9 9 10 10 10 9 9 9 8 7 6 6 6 5 4 4 4 3 3 3 4 3 2 1 1 1 1 3 6 7 7 8 7 7 7 6 6 6 7 8 8 8 8
24 26 28 27 28 25 20 21 22 22 24 25 24 23 22 21 22 23 23 23 22 22 21 20 19 19 18 17 16 16 16 15 15 14 13 13 12 11 11 11 11 10 9 8 9 10 10 10 10 9 8 7 7 6 6 6 4 4 3 3 2 3 4 4 3 2 1 1 1 1 4 5 6 8 8 8 8 7 6 6 7 7 7 8 8
18 21 27 30 30 29 25 22 22 22 23 25 25 24 23 21 21 22 22 21 22 21 20 20 18 18 18 17 16 16 17 16 16 15 14 14 13 12 12 12 11 10 9 9 9 10 10 10 10 9 9 7 7 6 6 6 5 4 3 3 2 3 3 4 3 3 2 1 1 1 2 3 5 8 9 9 8 8 7 7 7 7 7 7 8
10 13 20 29 31 29 27 24 24 23 23 24 25 25 23 23 22 21 22 21 21 21 20 20 19 18 18 17 17 17 17 17 17 17 16 15 14 13 13 12 13 12 11 11 10 10 10 10 10 9 9 8 7 7 6 6 5 5 4 4 3 3 3 3 3 3 2 2 1 0 1 2 4 7 9 9 9 9 8 8 8 7 7 7 7
4 6 11 22 28 27 25 25 24 23 23 23 24 25 25 24 24 23 23 22 21 21 20 20 20 19 18 18 17 17 17 16 16 16 16 15 14 13 13 13 14 14 13 12 11 11 10 10 10 10 9 9 8 7 7 7 7 6 6 6 5 4 4 3 3 3 3 3 2 2 2 3 4 6 9 10 10 9 9 9 8 8 8 8 8
5 8 7 10 20 24 23 24 23 22 22 23 23 24 25 24 25 25 24 23 22 22 21 21 20 19 19 18 17 17 16 16 16 15 14 14 14 13 13 12 13 14 13 12 12 11 10 10 10 10 10 10 9 8 8 8 8 8 7 7 7 6 5 4 4 4 4 4 4 4 4 4 4 5 8 10 10 10 10 9 8 8 9 8 8
11 15 13 10 16 22 20 21 22 23 22 22 22 23 24 24 24 25 25 24 23 23 22 21 20 20 19 18 18 17 16 16 16 15 14 14 13 13 13 12 12 13 12 12 12 11 11 11 11 11 11 11 10 10 9 9 9 9 9 9 9 8 7 6 5 5 5 5 5 6 6 5 5 6 8 9 10 11 10 10 9 9 9 9 9
12 15 20 17 17 19 18 19 21 22 23 22 22 22 23 23 24 24 24 24 24 24 23 22 22 21 21 20 19 18 17 17 17 16 15 15 14 14 14 14 13 14 13 13 12 11 11 11 11 11 11 11 11 11 10 10 10 10 10 10 10 10 9 8 7 6 6 6 6 7 7 7 6 6 8 9 10 11 10 10 10 10 10 10 9
12 14 17 18 18 18 18 21 20 19 23 22 21 22 23 23 24 24 24 24 24 24 24 24 23 22 22 22 20 19 19 18 18 18 18 17 16 15 15 14 14 14 14 14 13 12 11 10 9 10 11 12 12 12 11 11 11 11 12 12 12 12 11 11 9 8 8 7 7 8 9 8 8 7 8 9 10 11 11 11 11 11 10 10 10
0 6 12 16 18 21 22 24 21 18 22 24 22 21 22 23 23 24 24 24 24 24 24 23 22 22 22 22 22 21 20 20 20 20 19 19 18 16 15 15 15 15 14 14 14 13 12 11 10 9 11 13 13 13 12 12 12 12 13 13 13 13 13 13 12 10 9 8 8 8 10 10 9 9 9 10 10 12 13 12 12 11 11 11 10
13 8 7 11 16 20 22 23 23 20 22 25 23 21 21 22 23 23 23 23 23 22 22 21 21 21 22 22 23 23 23 22 22 21 20 20 19 18 16 16 15 15 15 15 15 15 14 13 11 10 11 13 13 13 13 13 13 12 13 13 14 14 14 14 14 13 12 10 9 9 10 11 11 10 10 10 11 12 13 13 12 12 11 11 11
8 10 13 15 15 16 19 21 23 23 24 25 24 23 23 24 24 23 22 22 21 20 20 19 19 20 22 23 24 24 24 24 23 22 22 21 20 19 18 17 16 16 16 16 16 17 16 15 13 13 12 13 13 13 12 13 13 13 13 14 14 14 15 15 15 15 14 13 11 10 11 12 13 12 11 11 11 12 13 13 13 12 12 12 11
0 4 8 14 15 14 18 22 25 27 28 28 26 24 24 24 24 23 21 21 20 20 20 20 20 20 21 22 23 23 24 24 23 23 22 21 20 20 20 19 19 18 17 17 17 18 18 17 16 14 14 13 13 12 12 12 13 14 14 14 15 15 15 15 15 15 16 15 14 12 12 13 14 14 12 12 12 13 13 14 14 13 13 13 12
2 2 4 6 10 14 19 22 25 28 28 28 26 24 25 24 24 22 21 21 21 21 21 22 22 22 22 23 23 23 24 25 24 24 23 23 22 22 21 21 21 20 19 18 17 18 18 19 18 17 16 15 15 14 13 13 14 14 15 16 16 16 16 16 16 16 17 17 16 15 14 14 15 15 15 13 13 13 13 14 14 14 14 14 14
5 3 2 2 7 13 19 20 20 21 20 22 22 22 23 23 23 21 20 19 18 18 19 20 21 22 23 23 24 24 25 26 25 25 24 24 24 23 23 23 22 21 20 19 18 18 19 19 19 19 18 17 17 17 15 15 15 15 16 16 17 17 17 17 17 17 17 18 17 17 16 15 16 17 17 15 14 14 14 14 14 15 15 16 15
8 4 1 5 9 10 12 13 13 13 13 14 15 17 18 19 19 19 18 17 17 18 18 19 21 21 21 23 24 25 27 26 26 25 25 24 24 24 24 24 23 22 21 20 20 19 19 19 19 19 20 20 20 19 18 18 17 17 17 17 18 18 18 19 19 18 18 18 19 19 18 18 17 18 18 18 16 15 15 15 15 15 15 16 17
18 8 3 8 9 7 4 3 6 9 10 10 10 12 14 16 17 18 18 18 19 20 20 20 21 21 21 22 23 25 27 27 26 25 25 25 25 25 24 24 23 22 22 22 21 21 20 19 19 19 20 20 20 20 21 21 19 19 18 18 19 19 20 21 21 21 21 21 21 22 21 20 19 19 19 19 18 17 16 16 16 16 16 16 17
20 10 11 19 19 16 14 10 6 2 5 8 9 10 12 14 16 17 18 19 20 21 20 19 20 20 20 20 21 24 26 27 26 25 25 25 26 26 25 24 24 23 23 23 23 23 21 20 20 20 20 20 20 21 21 22 22 22 20 20 20 21 22 23 22 22 22 22 23 24 24 24 22 21 21 20 20 19 18 18 17 17 17 17 18
16 16 22 24 22 20 19 16 14 11 8 6 6 7 9 11 13 15 17 18 20 21 21 20 19 19 20 20 21 24 27 27 27 27 27 27 27 26 26 25 25 24 23 24 24 24 23 22 21 21 22 21 20 21 21 21 22 23 22 22 21 21 23 23 23 23 22 23 24 24 25 25 25 24 22 22 21 21 20 19 19 18 18 19 19
23 26 27 25 24 22 20 19 17 14 12 10 9 7 7 8 10 12 14 15 16 18 20 21 20 20 21 22 22 24 26 28 29 28 28 29 29 28 27 26 26 25 24 24 25 25 24 24 24 23 23 22 21 21 20 20 21 22 23 23 22 22 22 22 23 23 23 24 25 25 25 26 27 27 25 24 22 22 22 21 20 20 20 20 20
27 27 27 26 26 24 22 21 19 17 15 13 11 10 8 7 8 9 11 12 13 15 17 20 21 21 23 24 24 26 27 28 29 29 29 29 29 29 28 28 27 26 25 25 25 25 25 26 25 25 24 24 22 21 20 20 20 21 22 22 23 23 22 21 22 23 24 25 25 25 25 27 28 28 28 26 24 24 23 22 22 22 22 21 21
26 25 25 25 24 23 22 22 20 18 16 16 15 14 12 10 9 10 11 12 13 14 14 17 20 22 25 25 25 28 30 30 29 28 28 29 29 29 29 28 28 27 26 26 26 26 27 27 27 26 26 25 24 23 22 21 21 21 21 22 22 22 22 23 23 24 24 25 25 25 25 27 28 29 30 28 27 26 26 25 24 24 23 22 22
24 23 24 24 23 22 22 22 21 18 18 18 18 18 17 15 12 10 11 13 14 14 13 14 16 19 23 24 25 28 30 32 31 30 29 28 29 29 29 28 28 28 28 28 27 26 27 28 27 27 27 26 26 24 23 22 19 17 17 19 21 22 22 22 23 24 24 24 24 25 25 26 28 30 30 30 30 29 28 27 26 25 25 24 23
23 22 23 23 22 21 21 21 20 19 20 19 17 17 18 16 13 11 11 12 12 13 13 13 14 16 18 20 22 24 27 29 30 31 30 30 30 29 29 29 29 29 29 29 27 26 27 27 27 27 27 27 26 25 24 20 15 14 12 9 12 17 19 19 20 21 22 22 23 24 25 26 28 29 30 31 31 32 31 30 28 27 27 26 25
22 21 20 20 20 20 20 19 18 19 19 18 18 17 16 16 15 13 11 10 10 12 14 15 14 15 16 17 19 20 23 25 27 28 29 30 30 29 29 28 29 29 29 29 28 28 28 28 28 28 26 26 26 26 25 22 18 15 9 4 4 5 8 13 18 20 20 20 21 23 25 26 27 28 29 31 33 33 33 32 31 30 29 28 27
20 20 19 18 18 18 17 17 17 17 17 17 18 16 15 14 14 13 11 9 8 10 14 16 15 15 15 16 17 18 20 23 25 26 27 29 30 30 29 29 29 29 29 29 29 30 30 30 29 29 26 24 24 26 26 26 24 16 6 2 2 1 3 6 9 14 15 16 19 21 23 26 27 28 29 32 33 33 34 34 33 32 32 31 30
19 18 18 17 17 16 16 16 16 16 17 17 17 17 16 16 15 15 14 13 13 13 14 17 18 17 16 17 17 17 18 20 22 24 26 27 29 30 30 30 30 30 30 30 31 31 31 31 30 30 30 27 26 25 25 26 28 25 16 6 2 1 3 3 3 7 11 15 17 19 20 22 25 26 29 31 32 33 34 34 34 34 33 33 32
17 16 16 16 16 16 15 15 16 17 18 18 18 18 18 18 19 18 17 18 18 17 16 18 20 19 18 17 16 17 18 19 20 22 24 26 28 29 29 30 30 30 30 30 32 32 31 32 32 31 32 32 29 24 24 26 27 30 29 22 16 11 5 3 2 4 7 12 15 17 19 20 21 24 27 30 31 32 33 33 34 34 34 34 34
13 14 15 15 16 16 16 16 17 18 19 20 21 21 21 20 20 18 17 16 17 18 19 19 20 20 20 18 16 15 16 18 19 20 22 24 26 28 29 29 29 29 30 31 31 31 32 33 32 32 33 34 30 25 26 26 24 28 32 32 29 25 18 10 5 2 3 7 11 15 17 18 18 20 23 25 27 28 30 31 32 33 34 35 35
12 13 14 15 15 15 16 16 17 18 20 21 22 23 23 22 21 19 18 17 17 19 21 22 21 21 21 20 18 15 15 17 19 20 21 23 24 26 28 29 29 29 29 30 31 31 32 32 31 32 34 33 31 31 30 25 24 27 29 31 32 30 27 22 16 10 5 5 8 11 14 16 17 19 22 23 24 26 27 29 30 31 33 34 35
11 12 13 13 13 14 15 16 18 19 20 21 23 24 24 23 22 21 21 21 20 21 22 23 22 22 23 23 21 18 16 15 17 19 20 22 24 25 27 28 29 29 29 30 30 31 31 31 30 31 34 34 34 34 32 28 29 29 26 27 29 28 26 25 23 18 11 8 8 7 9 12 15 20 22 22 22 23 24 26 27 29 31 32 34
10 10 10 10 11 12 14 16 18 20 20 22 23 24 24 24 24 23 22 23 23 24 24 23 23 23 24 24 24 22 19 17 17 18 19 20 22 24 26 27 27 29 30 30 30 31 32 31 32 32 33 34 35 35 34 32 32 31 28 26 25 23 18 16 18 19 14 11 10 9 8 8 11 17 21 22 22 22 23 25 26 28 29 30 31
8 7 8 9 10 12 14 16 18 19 21 22 23 24 25 24 24 23 23 23 24 24 25 24 24 24 24 24 25 24 21 20 18 18 19 20 21 23 24 25 26 28 29 30 30 31 32 33 33 34 34 34 34 34 34 34 32 31 30 29 28 26 21 16 18 20 16 10 9 9 11 13 14 19 21 22 23 23 23 25 26 27 27 28 29
Wind_Direction
176 170 170 170 165 160 158 156 155 152 150 149 147 144 142 142 142 144 145 147 147 148 149 148 148 148 146 141 138 138 137 134 131 128 129 129 126 125 126 125 122 119 117 115 114 113 112 110 108 109 109 110 110 110 110 111 113 115 115 120 119 116 118 116 114 113 111 113 112 112 112 111 108 106 104 102 102 99 96 94 94 94 91 92 93
175 170 172 171 167 161 159 157 156 154 152 151 148 145 143 143 144 145 147 148 149 148 147 147 147 146 144 141 139 137 135 132 130 129 130 129 126 125 125 123 121 119 118 115 115 115 115 113 110 113 115 112 110 111 111 111 113 115 116 114 113 119 121 120 117 114 113 114 114 113 113 111 107 105 105 104 101 98 94 88 86 88 90 92 90
169 170 173 171 168 163 160 158 157 155 153 152 149 146 143 143 144 147 149 150 151 151 150 148 146 144 142 140 136 133 131 130 130 129 128 127 126 125 124 124 123 122 120 118 117 116 116 117 114 115 116 111 110 114 117 117 118 117 115 111 106 111 117 119 118 118 118 116 116 116 114 111 106 105 106 102 100 96 90 82 82 86 89 91 91
166 169 171 170 169 165 162 160 158 156 154 153 151 148 144 143 143 145 148 150 151 151 151 149 147 143 139 137 133 131 132 130 129 128 126 126 127 127 127 127 126 124 123 121 120 120 119 118 117 116 115 110 109 112 116 119 123 124 119 110 98 96 105 112 115 118 119 118 121 118 112 109 106 106 105 99 96 88 81 81 84 89 91 94 95
166 170 171 170 170 168 164 162 159 157 155 154 153 150 146 144 143 143 145 147 148 149 149 148 145 140 136 135 133 133 132 129 128 127 127 129 130 130 128 128 128 127 126 125 123 123 122 121 121 120 116 112 111 109 111 112 117 124 120 115 107 99 100 104 106 111 117 121 122 120 112 108 105 103 103 98 93 86 83 89 93 95 96 98 97
167 170 171 171 170 168 166 162 158 156 155 154 152 150 147 146 145 144 145 144 145 146 146 144 140 137 136 136 136 136 132 129 129 129 131 131 131 130 128 129 129 131 129 127 125 126 126 125 125 123 119 115 114 112 112 111 111 114 113 112 109 100 99 102 107 113 119 125 125 121 116 111 105 100 100 98 97 96 93 96 100 100 100 100 100
168 170 171 172 171 169 168 163 157 155 154 154 153 152 149 148 148 147 147 146 147 145 143 143 140 139 139 138 138 137 135 132 131 132 135 134 135 136 134 132 130 132 131 128 127 129 130 129 129 126 125 123 122 120 119 118 115 112 111 108 103 93 88 93 110 130 132 133 131 125 122 119 111 104 104 105 101 99 98 98 104 104 101 101 104
170 171 173 175 174 172 171 165 160 158 157 158 157 155 153 150 150 149 150 150 150 149 148 148 144 142 141 140 139 138 138 136 133 133 134 133 132 135 136 137 137 135 133 133 132 132 134 133 133 132 131 131 130 129 128 127 124 121 119 116 115 108 92 83 85 138 160 153 143 138 133 131 129 117 113 114 109 107 106 105 107 107 104 106 107
172 173 175 177 175 173 172 168 165 163 161 162 161 159 156 153 152 151 152 152 152 152 152 152 147 146 144 142 141 140 139 135 132 133 133 130 126 125 125 127 133 139 138 139 137 135 138 138 137 135 134 134 132 132 133 133 130 129 132 134 138 129 103 90 89 107 185 174 161 156 150 150 146 130 122 119 115 113 113 113 112 111 112 113 109
174 175 177 178 176 174 172 170 167 164 163 165 164 161 158 156 154 154 154 154 154 154 154 154 150 148 145 142 141 139 137 134 134 136 136 133 131 128 123 119 120 132 140 143 142 140 142 142 140 139 138 135 133 131 130 129 127 132 143 152 164 171 145 112 143 171 239 185 171 163 159 154 134 123 123 120 118 118 118 119 115 116 118 114 110
176 176 178 178 177 174 173 170 167 165 164 165 164 161 160 158 156 156 156 156 156 155 156 155 152 149 145 142 140 139 138 138 140 140 139 138 136 135 134 128 121 124 134 146 148 146 145 145 144 143 141 137 133 128 124 124 126 138 163 181 198 220 213 227 230 229 253 202 170 154 143 133 123 119 124 123 124 124 121 119 116 116 115 115 115
177 177 177 178 177 175 173 171 169 166 166 166 165 163 162 160 159 158 158 158 157 156 157 157 155 152 148 145 143 143 143 144 145 144 143 141 140 139 138 136 132 128 129 140 150 152 151 148 149 148 144 137 131 126 124 125 127 152 215 224 224 237 198 205 239 238 243 212 177 154 145 145 138 130 131 133 129 122 120 119 119 119 118 120 120
175 176 178 178 176 175 173 173 171 169 169 168 166 165 164 163 161 160 160 160 158 157 159 160 159 157 152 148 147 148 149 150 150 149 148 146 144 142 139 140 141 138 132 134 143 151 153 153 154 153 148 140 134 130 129 127 115 69 268 236 201 209 177 191 227 233 231 215 193 168 163 164 151 139 140 139 129 124 125 125 124 124 124 125 123
169 174 179 180 176 175 174 176 174 171 172 170 168 168 166 165 164 163 163 162 160 159 160 162 162 158 153 151 151 152 153 154 154 153 151 150 148 146 145 146 146 144 141 139 142 148 151 153 156 156 151 144 138 134 131 126 100 89 143 159 142 144 160 182 208 223 223 215 202 180 170 158 135 138 142 140 135 134 134 132 131 129 130 131 128
168 176 184 182 178 177 177 178 176 173 173 172 170 170 168 166 166 165 165 164 162 160 161 163 163 160 157 156 155 155 156 156 156 155 155 154 154 153 152 152 151 149 147 148 148 149 151 153 155 154 152 149 144 137 134 127 108 110 132 144 143 134 136 157 171 207 219 213 202 182 168 152 140 144 142 144 143 141 140 137 134 132 135 136 132
174 179 184 183 181 180 180 179 177 175 174 174 173 172 171 168 168 168 167 167 164 162 163 164 164 164 162 161 159 158 159 160 159 159 159 160 160 160 159 158 157 154 153 154 154 153 155 157 156 155 155 155 151 144 139 128 108 110 129 145 149 140 135 140 128 134 160 204 193 180 171 159 153 152 147 152 150 148 147 142 138 136 138 138 135
176 178 176 177 182 183 185 183 179 177 177 178 176 176 174 171 171 170 170 169 166 164 164 165 166 167 166 165 164 162 162 163 163 163 165 166 166 166 165 164 161 160 160 160 158 158 162 162 162 161 159 160 160 156 146 133 112 106 117 141 157 157 162 164 88 96 82 140 179 182 180 167 160 158 155 158 157 159 155 150 147 144 144 142 138
172 176 173 171 179 186 190 186 183 180 179 180 178 180 178 175 174 173 173 172 169 166 166 167 168 169 169 169 168 167 166 166 167 169 170 170 171 170 169 167 164 165 167 165 163 163 168 167 167 169 165 167 171 167 156 145 126 113 108 121 161 186 201 214 239 80 65 64 163 189 190 176 168 164 161 167 167 169 167 163 158 152 151 146 142
173 178 173 169 177 190 196 189 189 185 182 181 180 181 181 180 177 176 176 174 172 170 168 169 170 171 171 172 172 171 169 168 171 174 174 174 174 174 171 171 170 171 173 172 170 168 170 173 174 175 170 172 181 178 170 168 151 132 120 116 159 200 214 224 232 238 46 44 112 190 194 183 173 165 164 174 173 175 178 175 169 162 158 151 148
177 180 173 171 176 187 198 191 191 192 187 184 181 181 183 183 180 181 180 177 176 174 173 172 172 172 172 173 173 173 173 173 175 178 178 178 177 177 176 176 177 178 181 181 181 176 175 179 181 183 181 176 184 191 181 183 181 159 151 144 160 189 199 208 221 240 293 15 65 151 187 183 176 167 170 181 179 181 188 188 182 172 169 164 157
175 182 176 171 174 185 195 194 192 194 192 187 184 182 184 186 183 184 183 180 179 178 177 176 174 172 173 173 174 178 179 180 181 182 182 184 184 180 179 182 184 187 192 194 193 188 184 185 186 188 192 188 190 199 193 192 199 195 186 185 180 173 180 197 215 236 260 326 27 123 167 181 184 174 175 184 184 186 191 195 192 185 185 178 168
167 182 181 172 174 184 190 195 196 194 194 190 188 185 184 187 187 186 185 184 181 180 180 180 180 177 176 176 179 183 183 185 187 187 187 187 187 186 186 188 194 199 204 206 205 199 194 193 192 193 197 201 203 207 207 203 209 215 213 211 206 188 186 198 217 236 257 297 326 223 177 186 193 179 180 187 187 189 192 197 195 194 197 190 184
121 171 191 178 175 181 189 198 199 195 194 192 191 189 186 187 190 188 187 186 183 182 183 184 186 184 183 184 186 187 186 189 191 193 192 188 186 188 192 193 198 205 208 210 208 203 200 200 201 200 201 206 211 214 217 216 216 224 227 224 221 214 208 212 227 245 261 277 280 260 240 210 204 185 187 191 189 189 194 202 198 197 202 199 197
153 172 196 184 173 177 189 201 202 198 196 194 193 191 189 190 191 190 189 188 186 185 187 187 189 189 189 191 193 191 191 193 194 196 198 194 188 186 193 196 198 203 208 209 208 205 203 205 207 208 208 209 211 215 220 222 223 228 232 233 230 228 226 226 237 253 262 270 268 257 251 232 219 201 197 197 191 191 197 204 204 201 205 207 206
178 174 178 191 181 179 190 203 205 200 196 196 195 192 192 193 193 193 192 190 189 188 190 192 192 191 193 196 197 195 195 196 196 196 202 205 197 189 192 197 200 201 206 211 214 211 207 206 209 213 216 215 214 214 219 223 226 230 235 238 237 235 237 239 245 257 263 268 263 253 253 244 231 215 207 203 196 197 200 204 206 207 211 212 212
185 177 176 187 191 190 199 209 210 201 197 197 195 193 193 196 198 197 197 195 194 193 194 196 194 194 196 198 198 197 198 199 200 199 204 210 207 201 198 202 206 205 206 214 219 219 216 211 211 218 222 224 223 219 220 224 227 232 236 240 243 243 244 248 253 262 264 266 260 251 252 249 238 225 214 209 204 203 205 206 206 208 212 216 217
185 185 186 189 194 201 208 213 214 202 198 201 196 193 195 199 202 200 202 201 200 199 199 200 198 197 198 200 199 199 201 201 204 204 206 211 213 212 209 211 214 213 212 216 222 224 226 223 220 225 228 231 231 227 225 227 229 232 236 239 245 248 249 252 259 267 268 265 258 250 252 251 243 235 223 218 212 206 207 210 209 211 212 217 219
294 197 201 203 205 211 208 207 214 203 195 201 199 196 198 203 206 203 204 205 205 204 203 204 203 201 202 204 204 203 204 205 206 208 210 213 217 218 217 218 222 225 224 223 225 225 228 230 230 232 236 238 237 234 232 232 233 234 237 239 242 248 252 255 260 266 270 268 262 254 254 254 251 247 236 230 223 211 209 211 212 213 213 217 219
358 323 270 239 226 223 213 203 210 208 199 202 201 197 200 206 209 208 207 208 207 207 207 207 208 208 208 210 211 209 208 208 208 209 211 214 218 222 222 223 227 232 235 235 234 233 230 230 231 234 241 245 244 240 237 236 238 238 239 240 242 245 251 256 261 265 269 271 269 262 257 257 256 255 248 239 229 217 214 214 215 216 215 218 220
357 316 309 292 259 240 229 217 215 212 208 208 204 199 201 206 210 211 211 210 209 209 209 209 211 213 213 214 215 217 216 213 212 212 212 215 218 222 225 227 229 232 236 240 242 243 240 235 233 234 240 247 251 249 245 243 242 243 243 243 244 246 250 255 261 264 267 270 271 268 261 258 258 259 257 249 236 222 218 218 219 218 216 220 221
94 247 280 291 278 258 242 235 226 216 212 213 211 204 201 205 209 210 211 211 211 211 212 213 214 215 215 217 219 223 225 223 219 217 215 217 220 223 228 230 231 232 235 239 243 246 247 245 242 241 241 246 253 255 251 248 245 247 248 247 248 248 251 255 259 264 267 270 270 269 264 260 260 261 261 255 244 228 222 221 221 220 218 220 222
10 234 237 283 284 259 237 231 223 213 207 208 209 205 201 203 207 209 210 210 211 212 214 217 218 218 218 219 222 225 228 231 229 225 222 221 222 225 230 232 234 235 236 239 242 245 250 252 250 248 247 246 251 255 253 252 249 249 250 251 252 252 253 255 258 262 268 272 272 271 267 262 260 262 262 258 251 238 228 226 224 223 221 221 223
360 327 349 281 243 232 226 224 216 207 202 201 204 204 204 206 207 210 210 210 210 211 216 222 225 225 224 223 224 225 228 232 233 232 230 228 227 227 230 233 236 237 238 240 242 245 248 251 252 252 252 250 249 252 254 254 253 253 253 253 255 255 255 256 259 262 267 272 273 273 271 267 261 260 262 260 255 246 236 232 229 227 225 224 224
40 16 72 189 198 197 209 222 222 217 212 207 208 210 213 214 214 215 215 216 219 220 223 229 233 234 234 233 231 230 229 231 234 235 234 234 234 233 234 236 238 239 241 242 242 244 245 247 250 252 254 253 252 254 256 256 255 256 257 256 257 257 258 260 262 265 269 273 275 274 272 270 265 260 261 261 258 252 244 240 236 233 231 229 227
59 40 115 123 109 98 112 201 231 236 236 232 227 225 224 223 224 228 230 229 226 227 229 231 235 237 238 239 240 239 235 233 234 236 238 237 238 239 239 240 242 243 244 245 245 245 245 246 247 250 253 254 254 255 257 258 257 256 257 258 258 258 259 261 264 269 273 276 277 277 273 270 267 262 260 260 260 257 253 248 244 241 238 235 231
68 61 81 81 75 70 63 54 43 330 270 260 252 246 240 234 235 239 245 242 234 233 234 235 238 237 236 240 246 249 246 240 237 237 240 240 240 242 243 246 247 247 248 248 248 246 246 246 247 248 251 252 254 255 257 259 259 258 257 258 258 258 259 261 264 269 274 278 279 278 275 270 267 263 259 258 259 259 257 255 252 248 245 242 238
81 78 79 78 75 72 65 56 47 34 15 344 310 284 266 256 252 252 257 256 249 243 239 239 240 239 241 243 246 250 251 248 243 240 240 242 242 243 245 249 250 250 250 250 250 250 249 249 250 250 250 252 254 256 257 260 261 260 259 258 258 259 260 262 265 270 275 278 279 279 277 272 267 263 258 256 257 258 258 257 257 255 253 249 246
81 77 76 76 74 72 69 64 56 47 39 26 9 344 314 290 277 271 271 271 267 257 248 246 245 245 249 246 243 245 248 249 248 245 242 242 243 245 247 248 250 250 250 251 251 252 252 252 254 254 253 252 252 255 258 261 263 262 260 257 257 260 263 266 269 272 275 277 279 281 280 275 268 264 261 258 257 259 258 258 258 257 257 255 252
76 74 72 71 69 68 65 63 59 55 51 43 36 24 7 343 318 307 298 291 289 279 265 258 255 254 256 254 249 248 250 250 248 247 245 244 243 244 247 247 248 248 248 250 249 249 249 249 252 255 255 254 254 256 257 261 264 263 261 258 257 260 264 268 271 274 275 277 278 280 280 276 270 265 263 261 259 259 259 258 257 256 258 258 257
70 69 69 66 64 63 62 60 55 52 49 42 37 30 22 12 351 335 325 319 315 304 287 271 261 256 258 259 256 253 253 253 250 247 246 245 243 243 244 245 246 245 245 246 246 246 247 248 250 253 255 255 255 255 255 257 259 261 261 260 259 261 264 268 272 275 276 276 276 276 276 274 269 265 264 263 261 259 259 258 257 256 258 259 259
64 61 62 59 58 56 54 54 50 47 45 39 34 28 25 18 1 344 335 333 330 319 306 292 277 266 262 260 258 255 254 253 252 250 248 247 244 242 241 242 242 242 244 246 247 248 248 249 250 252 253 251 252 254 253 251 251 256 261 263 263 262 263 267 271 272 274 274 273 271 271 270 267 264 264 264 263 262 260 259 259 258 258 258 258
63 58 56 53 51 48 46 43 39 38 39 36 33 29 27 21 9 355 340 332 332 328 319 312 301 290 281 272 267 263 258 255 253 251 250 247 242 239 239 239 239 239 242 244 245 245 246 246 246 247 249 248 250 254 251 241 234 240 249 265 270 264 262 262 264 266 267 268 267 267 268 267 265 263 263 264 263 263 262 260 260 260 259 258 258
62 56 50 46 42 40 39 35 31 31 31 30 28 25 22 21 17 12 357 336 331 329 322 319 316 310 300 287 278 271 263 259 255 252 249 247 242 238 238 238 238 237 238 239 239 239 241 242 242 243 245 246 248 250 247 238 230 230 235 247 261 266 265 258 255 256 258 261 262 263 263 264 265 263 262 262 261 261 262 261 260 260 260 259 259
58 53 48 44 40 37 34 31 30 27 25 24 23 19 14 11 10 11 8 353 339 328 323 323 325 325 319 308 295 283 271 263 258 255 252 250 246 242 240 238 237 236 235 235 236 237 237 237 239 240 239 240 243 245 244 241 235 226 206 191 202 208 262 257 251 252 251 252 254 256 258 260 261 260 259 260 261 261 261 262 261 260 260 260 260
65 62 57 54 50 46 39 34 31 27 25 21 16 13 7 3 359 356 355 353 349 345 340 334 332 332 327 320 311 302 290 277 268 260 255 253 251 249 245 239 236 235 233 233 235 238 237 236 237 238 236 236 239 242 243 241 237 232 222 207 179 200 245 238 250 259 245 241 248 252 254 257 258 258 259 260 260 260 260 261 262 262 261 260 260
77 74 70 69 66 59 51 43 36 30 25 19 15 11 7 6 6 4 360 353 346 344 343 337 334 333 328 322 315 308 302 293 282 269 259 255 253 253 249 243 237 234 233 234 235 236 237 237 236 234 235 237 237 239 242 240 238 237 233 230 234 236 231 183 186 268 252 238 243 248 251 255 258 259 259 259 260 260 261 262 262 263 263 262 260
91 86 82 79 73 66 60 53 45 37 30 24 17 13 11 8 6 5 1 352 340 332 331 330 329 328 327 326 319 311 305 300 294 284 272 261 256 254 251 248 243 237 234 234 235 235 237 238 236 234 236 237 233 233 240 239 234 237 236 234 237 240 240 231 209 244 281 251 240 242 249 252 253 257 260 261 263 264 266 266 266 266 265 264 263
105 95 88 80 71 65 60 54 47 40 33 26 20 16 15 11 5 360 351 344 335 327 324 324 323 322 322 323 323 318 309 302 298 294 284 272 264 258 254 251 248 243 237 234 235 237 239 238 235 235 236 236 231 232 237 235 229 234 235 233 236 239 240 240 238 239 256 275 259 248 252 255 255 259 264 267 268 269 270 270 269 269 268 267 267
108 94 86 76 65 59 52 45 40 35 28 23 19 16 14 11 7 1 351 342 334 325 321 320 317 317 316 316 319 321 315 307 300 297 291 282 273 265 259 254 250 246 242 238 237 239 240 238 235 234 235 235 234 234 236 235 233 234 232 230 232 236 239 241 242 240 241 254 262 259 254 257 260 259 260 263 267 268 269 270 271 271 272 272 271
104 90 80 69 58 51 42 36 32 27 22 19 16 14 12 9 6 2 354 345 337 330 324 321 317 315 313 310 313 318 318 314 306 298 294 290 283 273 265 259 254 250 246 242 238 238 240 239 237 236 235 236 236 235 236 237 238 236 233 229 226 227 231 237 234 232 235 242 251 260 252 244 257 261 259 259 261 265 268 271 272 273 274 274 274
102 87 74 62 52 44 37 33 28 22 18 15 12 10 8 6 4 1 354 346 340 334 327 322 319 317 314 309 308 312 315 313 310 303 297 294 290 281 272 266 260 253 249 245 241 238 238 239 239 237 236 236 236 236 237 238 240 239 236 231 228 225 224 226 225 220 221 227 237 254 253 246 251 257 261 262 261 263 266 267 269 271 273 275 276